Theta_e
344 343 342 341 342 343 343 342 341 341 341 342 341 340 339 338 338 340 341 341 341 340 340 340 339 339 338 338 339 339 340 341 342 343 343 342 343 343 343 343 343 341
346 345 344 343 343 343 343 343 342 341 341 341 341 340 340 338 338 339 340 341 341 341 341 340 339 338 338 338 339 339 340 341 341 342 342 342 342 343 343 344 344 343
347 346 346 346 345 345 344 344 343 342 342 341 341 341 340 339 338 338 339 339 340 341 341 340 340 339 338 338 338 339 339 340 340 341 341 342 342 343 343 343 343 343
347 347 347 347 346 346 345 345 344 344 343 343 341 341 340 340 339 339 339 338 339 339 338 339 340 339 338 337 337 339 339 339 340 340 340 340 341 341 342 342 342 342
347 348 348 347 348 347 346 345 345 344 343 343 342 342 341 341 340 340 340 339 338 338 338 338 338 339 339 338 337 337 338 339 339 340 339 339 339 340 341 341 341 341
347 348 348 348 348 348 346 345 344 344 343 342 342 342 342 341 341 341 341 340 339 338 337 337 337 337 338 338 338 337 337 338 338 338 339 339 339 339 339 340 340 341
347 348 348 348 348 348 347 346 345 344 344 344 344 344 343 343 342 341 341 341 341 339 338 337 336 336 337 338 339 339 338 338 337 337 338 338 338 338 338 338 339 339
346 347 348 348 348 348 348 348 347 346 346 346 346 345 345 344 343 342 342 341 340 339 338 337 336 336 336 336 337 339 339 339 338 337 336 337 338 337 337 338 338 339
346 347 347 348 348 348 349 349 348 348 347 346 346 346 346 345 345 344 343 342 341 339 338 337 336 336 336 334 335 336 339 339 338 337 337 337 337 337 337 337 337 338
346 347 348 348 348 348 348 349 349 349 349 347 347 347 346 346 346 346 344 343 342 340 338 336 336 336 334 333 332 334 336 338 339 338 337 336 337 337 337 337 337 337
346 347 348 348 348 348 349 349 349 349 349 348 348 348 347 347 347 347 345 343 341 340 338 336 335 335 334 332 331 332 334 337 337 337 336 337 337 337 338 337 337 337
346 346 348 348 348 348 348 348 349 349 349 349 349 349 349 348 347 348 346 342 340 338 337 336 335 335 334 332 332 332 334 336 337 337 336 336 337 336 337 337 337 336
346 347 347 347 347 348 348 348 348 349 349 349 349 349 349 349 348 347 345 343 340 338 336 335 335 334 334 332 332 332 333 335 336 336 336 336 335 335 336 336 335 335
346 346 346 347 348 348 348 348 348 348 349 349 349 349 349 348 347 346 344 343 341 339 337 335 335 334 333 332 332 332 332 334 335 335 335 335 334 334 334 334 334 334
346 347 347 347 348 348 348 348 348 348 349 349 349 349 349 348 347 345 344 343 341 339 338 336 335 334 332 331 331 330 331 333 334 335 335 334 334 333 333 334 333 333
347 347 347 347 348 348 348 348 349 348 349 349 349 349 349 348 346 345 344 342 340 339 338 336 334 333 331 330 331 330 331 331 332 333 334 334 333 333 333 333 333 333
347 347 348 348 348 348 349 348 349 349 349 349 349 349 349 348 346 345 343 341 340 339 338 336 333 331 330 330 331 330 330 331 331 331 332 333 333 333 331 331 332 332
347 347 348 348 348 349 348 348 349 349 349 349 350 350 350 348 346 344 342 340 339 338 336 335 332 330 330 329 330 330 330 330 330 330 330 331 331 330 330 329 330 330
348 348 348 348 348 348 349 348 348 349 349 349 350 350 350 349 347 345 342 340 339 337 335 334 332 331 330 330 330 330 330 330 330 330 329 329 329 329 329 329 329 329
348 348 348 348 349 349 348 349 348 348 349 349 350 350 350 350 348 347 345 342 339 336 335 334 332 331 330 330 330 330 330 331 331 331 331 330 329 329 329 329 329 329
348 349 349 348 348 349 348 348 348 349 349 349 350 350 350 349 349 349 347 344 341 338 336 334 332 331 331 330 331 330 330 331 331 331 332 331 330 329 329 329 330 330
349 348 349 348 348 349 349 349 349 349 349 349 349 350 350 350 350 350 349 346 343 342 339 335 332 331 331 330 331 331 331 331 331 331 332 331 331 330 331 331 331 331
349 348 348 348 348 348 348 349 348 348 348 348 349 349 350 350 350 350 350 348 347 346 342 337 333 333 332 331 331 332 332 332 332 333 333 332 332 332 331 332 333 332
349 348 348 348 348 348 348 348 348 349 349 349 349 349 350 350 350 350 350 349 349 349 345 340 337 337 334 333 334 334 334 334 334 335 335 334 334 334 334 334 334 333
348 348 348 348 348 348 348 348 349 349 349 349 350 350 351 351 351 351 351 351 351 352 350 347 346 345 340 337 337 337 336 336 336 337 337 335 335 335 335 335 335 335
348 348 348 349 349 349 349 349 349 349 350 350 351 351 351 351 352 352 352 352 354 354 354 353 353 351 347 343 342 343 342 342 342 341 339 337 335 336 336 337 337 337
Wind_Speed
34 34 34 33 33 32 31 30 29 29 28 26 24 23 22 20 19 19 17 16 15 14 14 13 12 11 11 11 11 11 10 9 9 9 9 9 8 8 8 7 7 7
33 33 33 33 33 32 32 30 29 29 28 27 25 24 22 20 20 20 19 17 16 15 14 14 13 13 12 12 12 12 12 11 10 10 10 9 9 9 8 7 8 8
32 32 32 33 33 32 32 31 30 29 28 27 26 25 23 21 21 21 20 18 17 16 15 15 15 14 14 13 13 13 13 12 11 11 11 10 10 9 9 8 9 9
32 31 30 30 31 31 32 32 31 29 28 28 27 26 24 23 22 21 20 20 19 18 17 17 16 15 16 15 15 15 14 13 12 12 12 12 11 11 10 10 10 10
33 32 30 29 29 30 30 31 30 29 29 28 27 26 25 24 23 22 22 21 20 20 19 19 18 17 17 17 17 17 16 15 14 14 14 14 13 12 11 11 11 11
35 33 31 29 28 28 28 28 28 28 27 27 26 26 25 24 24 23 22 22 21 21 21 21 20 19 19 18 19 19 18 18 17 16 16 15 14 14 13 13 13 12
36 34 32 31 30 28 27 27 26 26 26 25 25 24 24 24 24 24 23 22 22 22 22 22 22 21 21 20 20 20 20 19 18 17 17 17 16 15 15 14 14 14
35 35 33 33 32 30 28 27 26 26 26 25 24 23 22 23 23 23 24 23 23 23 23 23 23 23 22 22 22 22 21 21 20 19 18 18 17 17 16 16 15 15
35 35 34 33 33 32 30 28 27 26 26 26 25 24 23 23 23 23 23 24 24 24 24 24 24 24 24 24 23 23 23 22 21 20 19 19 18 18 17 17 17 16
36 35 34 34 34 33 32 30 28 27 26 25 24 24 24 24 23 23 24 25 26 26 26 26 26 25 25 25 24 24 24 23 23 22 21 20 19 18 18 17 17 17
37 36 35 34 34 34 32 31 30 29 27 25 25 25 24 24 24 23 24 26 27 28 28 28 27 26 26 25 25 25 25 24 24 23 22 21 20 19 19 18 18 18
39 37 36 34 34 33 33 31 31 30 28 26 26 25 25 25 24 24 24 26 27 28 28 29 28 27 27 26 26 26 26 26 25 25 24 23 21 21 20 20 19 19
40 38 35 34 34 33 33 31 31 31 29 27 26 26 26 25 25 25 25 26 27 27 28 29 29 29 29 28 27 27 27 27 27 26 26 25 24 23 22 22 22 21
40 37 35 34 34 33 32 31 31 30 29 28 27 27 26 26 25 25 26 26 27 28 28 29 30 31 30 30 29 28 28 28 28 28 28 27 26 25 25 25 24 23
40 37 36 35 34 33 32 31 31 30 29 28 28 27 26 25 25 26 26 27 27 28 28 29 30 32 32 32 31 30 29 29 29 30 29 29 28 27 27 26 26 25
40 38 37 37 35 34 33 32 31 30 30 29 28 27 26 26 26 26 27 27 27 28 29 29 31 32 33 33 31 30 30 30 30 30 30 30 29 29 28 28 27 27
40 40 39 38 37 35 34 33 32 31 31 30 29 28 28 27 27 27 27 27 28 29 29 30 31 32 32 32 31 30 30 30 30 30 30 31 30 30 30 29 28 28
41 41 40 39 37 36 34 32 32 32 32 31 30 29 29 29 28 28 28 28 29 30 30 31 32 32 31 30 30 30 29 29 29 30 30 31 31 31 30 29 29 28
41 40 39 38 37 35 33 32 33 33 33 32 31 31 31 30 29 29 29 29 29 30 31 32 33 32 31 30 30 29 29 28 29 29 30 30 30 30 30 29 29 28
40 39 39 37 35 35 34 33 34 34 33 33 32 32 32 31 30 30 30 30 30 31 32 32 32 32 31 30 29 29 28 28 28 29 29 30 30 29 29 29 28 28
40 39 38 36 35 35 35 35 35 34 34 33 33 33 32 31 31 31 31 30 30 31 31 32 32 32 30 29 29 28 28 28 28 28 28 29 29 29 29 28 28 28
40 38 37 36 35 35 35 35 35 34 33 33 33 33 32 31 31 31 31 30 30 30 31 32 33 32 30 29 28 28 27 27 28 28 28 29 29 29 29 28 28 28
39 38 37 36 36 36 36 36 35 34 33 33 33 33 33 32 31 31 31 31 30 31 32 33 33 32 31 30 29 28 28 28 29 29 29 29 29 29 29 28 28 28
38 37 36 36 36 36 35 35 34 34 33 33 33 33 33 33 31 31 31 31 31 32 32 32 32 32 31 30 29 29 29 29 30 29 29 29 29 28 28 28 28 28
37 36 36 35 35 35 34 34 33 33 33 33 33 33 33 33 32 32 32 32 32 32 31 31 31 31 31 30 29 29 29 29 30 29 29 30 29 28 28 28 28 27
35 35 35 35 35 33 32 32 31 31 32 33 33 33 33 33 33 32 32 31 31 31 31 31 31 31 31 31 30 29 29 29 29 29 30 29 28 27 27 27 26 25
Wind_Direction
225 226 226 227 229 231 232 232 231 231 231 231 231 232 232 230 228 226 224 223 225 228 230 235 237 237 237 237 239 243 246 250 253 256 256 255 255 253 254 257 260 263
225 226 227 228 229 231 233 233 233 232 232 232 233 235 234 232 230 228 226 224 225 228 231 236 238 238 237 237 239 242 246 248 251 256 259 260 258 257 258 260 262 266
226 226 227 228 230 232 233 234 235 233 233 234 235 236 236 234 231 230 228 227 227 229 231 234 239 241 240 239 239 241 245 248 250 255 259 260 259 258 260 262 265 269
225 227 228 229 231 232 234 235 235 235 235 235 235 236 236 235 233 232 231 229 229 230 231 233 237 242 244 242 240 240 243 246 249 253 257 260 260 259 259 262 267 271
226 227 228 230 232 233 234 234 235 236 235 235 235 236 237 235 234 234 232 231 231 231 232 234 236 240 244 245 243 241 241 244 247 251 256 260 262 262 263 264 266 271
226 227 228 230 232 233 233 233 233 234 234 235 235 236 236 236 236 235 234 233 233 232 232 234 236 238 242 245 246 244 243 243 245 248 252 258 261 262 264 265 267 270
225 227 228 229 231 232 232 232 232 232 232 233 234 234 235 236 236 237 236 236 236 234 233 233 235 238 240 243 245 246 246 246 246 246 249 253 258 261 262 265 268 270
225 226 227 229 230 231 231 231 232 232 232 232 233 233 233 235 236 237 237 237 238 237 235 234 235 237 239 241 243 245 247 248 248 248 249 252 255 258 262 265 268 270
223 225 226 227 229 231 231 232 232 232 232 232 233 233 234 235 237 239 239 238 238 239 237 235 235 235 237 238 240 242 245 247 248 249 250 253 255 257 261 263 266 268
222 223 225 226 228 230 231 232 232 232 232 232 232 234 235 236 238 240 241 240 239 239 237 235 234 234 235 236 237 239 242 244 246 248 250 252 254 256 258 260 263 266
222 223 224 226 227 229 230 231 232 233 233 232 233 235 236 237 238 240 241 240 239 238 236 234 233 233 234 235 235 237 239 242 244 246 248 250 252 255 257 258 260 263
222 223 223 224 226 227 229 230 231 233 233 232 233 235 236 238 239 239 240 240 238 237 235 234 233 233 234 234 235 236 237 240 243 245 247 249 251 254 256 258 260 263
222 222 222 223 225 226 228 229 230 232 233 233 233 234 236 238 239 239 239 239 238 237 236 234 233 233 234 234 234 235 236 238 241 243 246 248 251 254 256 259 260 262
221 221 221 223 225 226 227 228 230 232 232 233 234 235 236 237 238 239 239 239 238 238 237 236 235 234 234 234 233 234 236 238 240 242 245 248 251 253 256 258 261 263
220 220 221 223 225 225 226 228 229 231 232 233 234 234 235 236 237 238 239 239 238 238 237 237 236 235 235 234 234 235 236 238 240 242 244 247 250 253 255 258 261 264
220 221 222 223 225 225 226 228 229 230 231 232 233 233 234 235 235 237 239 239 238 239 239 238 238 237 236 236 236 237 238 240 241 242 244 246 249 252 255 258 260 263
221 222 223 224 225 226 227 228 229 230 231 231 232 232 232 233 233 235 237 238 239 239 239 239 239 238 237 238 238 239 240 242 244 245 246 247 250 252 255 257 260 262
221 222 223 224 225 226 227 228 229 231 231 231 231 231 232 232 232 233 234 236 238 239 240 240 240 239 239 239 240 240 241 243 245 247 249 250 252 254 256 258 260 262
221 223 224 225 226 227 228 229 230 231 231 232 232 232 233 232 232 233 233 234 237 239 240 241 241 241 240 240 240 241 241 243 245 247 250 252 253 255 256 258 260 262
221 223 224 225 226 227 228 229 230 231 232 233 234 234 234 233 233 234 234 235 236 238 240 241 242 242 241 240 241 241 241 242 244 246 249 252 253 254 256 258 259 262
221 222 224 225 226 227 228 229 230 232 232 234 235 236 235 235 235 236 237 236 236 238 240 241 241 242 242 241 241 241 241 241 242 244 247 250 252 253 255 257 259 261
221 221 222 223 225 226 227 229 230 231 232 233 235 237 238 238 238 239 240 239 238 239 241 241 242 242 242 241 241 240 241 241 242 244 246 248 250 252 253 255 257 259
221 221 221 222 223 225 226 228 229 230 231 232 234 236 238 239 239 240 241 240 240 241 241 241 241 242 241 241 241 240 241 242 243 244 246 247 249 251 253 255 256 257
221 221 221 222 223 225 226 228 229 230 231 233 234 236 238 240 241 241 242 242 242 242 241 241 242 243 242 240 241 241 242 243 244 246 247 248 248 250 251 253 254 254
223 223 223 224 225 226 228 229 231 232 234 235 237 238 240 242 243 244 244 245 244 244 244 243 244 245 243 241 240 241 241 243 245 246 247 247 247 248 249 250 251 252
225 225 225 226 227 229 230 232 233 235 236 238 239 240 241 243 244 245 246 247 247 247 247 246 245 245 244 241 239 240 240 241 243 244 245 245 245 245 247 248 249 250